N508FX SBFN-SBIL

Flight info

Callsign N508FX
Flight time 1h 41m
Altitude 43000
Route EDVUP UN857 AMBET UZ14 AKPAS DCT TOLOG
Aircraft CL30/M-SDFGIRW/S

Departure

Time 2026-05-06 03:36
Airport Fernando de Noronha Airport (SBFN)

Arrival

Time 2026-05-06 05:18
Airport Bahia - Jorge Amado Airport (SBIL)
Time Latitude Longitude Altitude Speed Heading
2026-05-06 03:25 -3.85605 -32.42836 187 ft 0 kts 185°
2026-05-06 03:31 -3.85604 -32.42836 187 ft 0 kts 185°
2026-05-06 03:31 -3.85591 -32.42835 187 ft 2 kts 185°
2026-05-06 03:32 -3.85576 -32.42833 187 ft 2 kts 185°
2026-05-06 03:32 -3.85568 -32.42833 187 ft 1 kts 174°
2026-05-06 03:32 -3.85561 -32.42837 187 ft 1 kts 114°
2026-05-06 03:32 -3.85560 -32.42843 187 ft 0 kts 94°
2026-05-06 03:34 -3.85560 -32.42834 187 ft 6 kts 94°
2026-05-06 03:34 -3.85562 -32.42804 186 ft 2 kts 94°
2026-05-06 03:34 -3.85563 -32.42786 186 ft 7 kts 77°
2026-05-06 03:35 -3.85532 -32.42762 185 ft 3 kts 24°
2026-05-06 03:35 -3.85506 -32.42750 185 ft 7 kts 24°
2026-05-06 03:35 -3.85456 -32.42733 185 ft 5 kts 353°
2026-05-06 03:35 -3.85431 -32.42723 185 ft 4 kts 75°
2026-05-06 03:36 -3.85430 -32.42718 185 ft 0 kts 84°
2026-05-06 03:36 -3.85441 -32.42453 186 ft 88 kts 95°
2026-05-06 03:36 -3.85502 -32.41516 303 ft 171 kts 96°
2026-05-06 03:36 -3.85524 -32.40376 1678 ft 167 kts 95°
2026-05-06 03:37 -3.85820 -32.39280 2895 ft 173 kts 99°
2026-05-06 03:37 -3.86072 -32.38195 4157 ft 169 kts 126°
2026-05-06 03:37 -3.87014 -32.37587 5288 ft 175 kts 172°
2026-05-06 03:37 -3.88134 -32.37883 6508 ft 180 kts 217°
2026-05-06 03:38 -3.88919 -32.38830 7673 ft 184 kts 227°
2026-05-06 03:38 -3.89759 -32.39735 8773 ft 186 kts 221°
2026-05-06 03:38 -3.90720 -32.40582 9858 ft 189 kts 216°
2026-05-06 03:38 -3.91747 -32.41370 10904 ft 192 kts 213°
2026-05-06 03:39 -3.92823 -32.42121 11915 ft 195 kts 211°
2026-05-06 03:39 -3.93948 -32.42858 12899 ft 198 kts 210°
2026-05-06 03:39 -3.95094 -32.43577 13831 ft 202 kts 209°
2026-05-06 03:39 -3.96287 -32.44303 14744 ft 205 kts 208°
2026-05-06 03:40 -3.97512 -32.45034 15636 ft 209 kts 207°
2026-05-06 03:40 -3.98753 -32.45767 16492 ft 213 kts 207°
2026-05-06 03:40 -4.00024 -32.46511 17322 ft 217 kts 207°
2026-05-06 03:40 -4.01317 -32.47264 18126 ft 221 kts 207°
2026-05-06 03:41 -4.02649 -32.48038 18920 ft 225 kts 207°
2026-05-06 03:41 -4.04009 -32.48827 19690 ft 229 kts 207°
2026-05-06 03:41 -4.05387 -32.49625 20432 ft 233 kts 207°
2026-05-06 03:41 -4.06784 -32.50434 21157 ft 237 kts 207°
2026-05-06 03:42 -4.08216 -32.51263 21871 ft 241 kts 207°
2026-05-06 03:42 -4.09664 -32.52101 22562 ft 244 kts 207°
2026-05-06 03:42 -4.11125 -32.52947 23227 ft 248 kts 207°
2026-05-06 03:42 -4.12610 -32.53805 23879 ft 252 kts 207°
2026-05-06 03:43 -4.14131 -32.54686 24523 ft 255 kts 208°
2026-05-06 03:43 -4.15681 -32.55582 25154 ft 259 kts 208°
2026-05-06 03:43 -4.17228 -32.56478 25761 ft 262 kts 208°
2026-05-06 03:43 -4.18808 -32.57392 26363 ft 266 kts 208°
2026-05-06 03:44 -4.20420 -32.58325 26954 ft 269 kts 208°
2026-05-06 03:44 -4.22034 -32.59259 27526 ft 272 kts 209°
2026-05-06 03:44 -4.23678 -32.60211 28094 ft 275 kts 209°
2026-05-06 03:44 -4.25317 -32.61160 28638 ft 278 kts 209°
2026-05-06 03:45 -4.26981 -32.62123 29175 ft 281 kts 210°
2026-05-06 03:45 -4.28675 -32.63104 29712 ft 283 kts 210°
2026-05-06 03:45 -4.30384 -32.64093 30236 ft 286 kts 210°
2026-05-06 03:45 -4.32104 -32.65089 30746 ft 288 kts 210°
2026-05-06 03:46 -4.33823 -32.66084 31240 ft 290 kts 211°
2026-05-06 03:46 -4.35573 -32.67097 31733 ft 293 kts 211°
2026-05-06 03:46 -4.37339 -32.68120 32222 ft 295 kts 211°
2026-05-06 03:46 -4.39119 -32.69151 32693 ft 297 kts 211°
2026-05-06 03:47 -4.40891 -32.70177 33154 ft 299 kts 212°
2026-05-06 03:47 -4.42703 -32.71227 33619 ft 301 kts 212°
2026-05-06 03:47 -4.44498 -32.72267 34072 ft 302 kts 212°
2026-05-06 03:47 -4.46335 -32.73333 34517 ft 304 kts 212°
2026-05-06 03:48 -4.48144 -32.74381 34936 ft 306 kts 212°
2026-05-06 03:48 -4.49999 -32.75457 35346 ft 309 kts 212°
2026-05-06 03:48 -4.51867 -32.76540 35763 ft 311 kts 212°
2026-05-06 03:48 -4.53726 -32.77616 36199 ft 311 kts 212°
2026-05-06 03:49 -4.55573 -32.78687 36653 ft 311 kts 212°
2026-05-06 03:49 -4.57439 -32.79768 37089 ft 310 kts 212°
2026-05-06 03:49 -4.59305 -32.80850 37506 ft 310 kts 212°
2026-05-06 03:49 -4.61208 -32.81872 37902 ft 311 kts 209°
2026-05-06 03:50 -4.63124 -32.82859 38295 ft 311 kts 209°
2026-05-06 03:50 -4.65035 -32.83843 38669 ft 311 kts 209°
2026-05-06 03:50 -4.66956 -32.84832 39040 ft 311 kts 209°
2026-05-06 03:50 -4.68853 -32.85808 39388 ft 311 kts 209°
2026-05-06 03:51 -4.70788 -32.86803 39737 ft 311 kts 209°
2026-05-06 03:51 -4.72710 -32.87791 40074 ft 311 kts 209°
2026-05-06 03:51 -4.74626 -32.88776 40396 ft 311 kts 209°
2026-05-06 03:51 -4.76521 -32.89750 40707 ft 311 kts 209°
2026-05-06 03:52 -4.78460 -32.90746 41013 ft 311 kts 209°
2026-05-06 03:52 -4.80382 -32.91734 41308 ft 311 kts 209°
2026-05-06 03:52 -4.82133 -32.92634 41567 ft 311 kts 209°
2026-05-06 03:52 -4.84069 -32.93630 41849 ft 311 kts 209°
2026-05-06 03:53 -4.86005 -32.94624 42126 ft 311 kts 210°
2026-05-06 03:53 -4.87903 -32.95600 42387 ft 311 kts 210°
2026-05-06 03:53 -4.89840 -32.96596 42646 ft 311 kts 210°
2026-05-06 03:53 -4.91746 -32.97576 42897 ft 311 kts 210°
2026-05-06 03:54 -4.95686 -32.99604 43008 ft 326 kts 210°
2026-05-06 03:54 -4.99820 -33.01730 43011 ft 347 kts 210°
2026-05-06 03:55 -5.02987 -33.03359 43010 ft 362 kts 210°
2026-05-06 03:55 -5.05246 -33.04521 43010 ft 373 kts 210°
2026-05-06 03:56 -5.08551 -33.06222 43009 ft 388 kts 211°
2026-05-06 03:56 -5.10975 -33.07470 43005 ft 399 kts 211°
2026-05-06 03:56 -5.16035 -33.10075 43000 ft 419 kts 210°
2026-05-06 03:57 -5.21296 -33.12784 42999 ft 439 kts 210°
2026-05-06 03:57 -5.26827 -33.15631 42999 ft 457 kts 210°
2026-05-06 03:58 -5.32557 -33.18581 42998 ft 474 kts 210°
2026-05-06 03:58 -5.38500 -33.21641 42995 ft 486 kts 210°
2026-05-06 03:59 -5.44481 -33.24721 42990 ft 485 kts 210°
2026-05-06 03:59 -5.50462 -33.27802 42995 ft 481 kts 210°
2026-05-06 04:00 -5.56372 -33.30848 43005 ft 480 kts 210°
2026-05-06 04:00 -5.62279 -33.33893 43016 ft 481 kts 210°
2026-05-06 04:01 -5.68199 -33.36945 43019 ft 481 kts 210°
2026-05-06 04:01 -5.74144 -33.40011 43019 ft 481 kts 210°
2026-05-06 04:02 -5.80073 -33.43070 43020 ft 481 kts 210°
2026-05-06 04:02 -5.86018 -33.46137 43020 ft 481 kts 210°
2026-05-06 04:03 -5.91927 -33.49187 43020 ft 481 kts 210°
2026-05-06 04:03 -5.97871 -33.52255 43020 ft 481 kts 210°
2026-05-06 04:04 -6.03794 -33.55313 43020 ft 481 kts 210°
2026-05-06 04:04 -6.09730 -33.58379 43021 ft 481 kts 210°
2026-05-06 04:05 -6.15639 -33.61431 43025 ft 481 kts 210°
2026-05-06 04:05 -6.21572 -33.64497 43035 ft 481 kts 210°
2026-05-06 04:06 -6.27495 -33.67558 43047 ft 481 kts 210°
2026-05-06 04:06 -6.33430 -33.70627 43047 ft 481 kts 210°
2026-05-06 04:07 -6.39350 -33.73688 43047 ft 481 kts 210°
2026-05-06 04:07 -6.45263 -33.76747 43047 ft 481 kts 210°
2026-05-06 04:08 -6.51203 -33.79820 43048 ft 481 kts 210°
2026-05-06 04:08 -6.57138 -33.82892 43048 ft 481 kts 210°
2026-05-06 04:09 -6.63053 -33.85954 43048 ft 481 kts 210°
2026-05-06 04:09 -6.68998 -33.89032 43048 ft 481 kts 210°
2026-05-06 04:10 -6.74933 -33.92107 43049 ft 481 kts 210°
2026-05-06 04:10 -6.80834 -33.95164 43049 ft 481 kts 210°
2026-05-06 04:11 -6.86775 -33.98242 43049 ft 481 kts 210°
2026-05-06 04:11 -6.92676 -34.01301 43049 ft 481 kts 210°
2026-05-06 04:12 -6.98638 -34.04393 43050 ft 483 kts 210°
2026-05-06 04:12 -7.04583 -34.07476 43050 ft 485 kts 210°
2026-05-06 04:13 -7.10546 -34.10571 43049 ft 485 kts 210°
2026-05-06 04:13 -7.16523 -34.13673 43044 ft 485 kts 210°
2026-05-06 04:14 -7.22501 -34.16776 43044 ft 484 kts 210°
2026-05-06 04:14 -7.28469 -34.19875 43044 ft 485 kts 210°
2026-05-06 04:15 -7.34427 -34.22970 43045 ft 485 kts 210°
2026-05-06 04:15 -7.40391 -34.26069 43045 ft 485 kts 210°
2026-05-06 04:16 -7.46375 -34.29179 43045 ft 485 kts 210°
2026-05-06 04:16 -7.52355 -34.32289 43045 ft 485 kts 210°
2026-05-06 04:17 -7.58290 -34.35376 43038 ft 485 kts 210°
2026-05-06 04:17 -7.64278 -34.38491 43028 ft 485 kts 210°
2026-05-06 04:18 -7.70256 -34.41603 43020 ft 485 kts 210°
2026-05-06 04:18 -7.76078 -34.44926 43018 ft 480 kts 219°
2026-05-06 04:19 -7.81373 -34.48988 43020 ft 479 kts 221°
2026-05-06 04:19 -7.86594 -34.53114 43020 ft 479 kts 221°
2026-05-06 04:20 -7.91787 -34.57255 43020 ft 479 kts 222°
2026-05-06 04:20 -7.96994 -34.61421 43020 ft 479 kts 222°
2026-05-06 04:21 -8.02218 -34.65606 43022 ft 479 kts 222°
2026-05-06 04:21 -8.07411 -34.69768 43025 ft 479 kts 222°
2026-05-06 04:22 -8.12588 -34.73920 43018 ft 479 kts 222°
2026-05-06 04:23 -8.20536 -34.80021 43021 ft 480 kts 218°
2026-05-06 04:23 -8.26015 -34.83856 43019 ft 481 kts 218°
2026-05-06 04:24 -8.31473 -34.87674 43019 ft 480 kts 218°
2026-05-06 04:24 -8.36939 -34.91499 43019 ft 480 kts 218°
2026-05-06 04:25 -8.42418 -34.95335 42999 ft 481 kts 217°
2026-05-06 04:25 -8.47874 -34.99154 42993 ft 481 kts 217°
2026-05-06 04:26 -8.53342 -35.02985 42993 ft 480 kts 217°
2026-05-06 04:26 -8.58841 -35.06837 42993 ft 480 kts 217°
2026-05-06 04:27 -8.64277 -35.10647 42993 ft 480 kts 217°
2026-05-06 04:27 -8.69737 -35.14475 42993 ft 480 kts 217°
2026-05-06 04:28 -8.75221 -35.18321 42994 ft 480 kts 217°
2026-05-06 04:28 -8.80691 -35.22160 42994 ft 480 kts 217°
2026-05-06 04:29 -8.86152 -35.25993 43008 ft 480 kts 217°
2026-05-06 04:29 -8.91598 -35.29817 43028 ft 480 kts 217°
2026-05-06 04:30 -8.97073 -35.33662 43047 ft 480 kts 217°
2026-05-06 04:30 -9.02559 -35.37520 43049 ft 481 kts 217°
2026-05-06 04:31 -9.07998 -35.41343 43049 ft 480 kts 216°
2026-05-06 04:31 -9.13472 -35.45192 43045 ft 480 kts 216°
2026-05-06 04:32 -9.18929 -35.49028 43045 ft 479 kts 216°
2026-05-06 04:32 -9.24377 -35.52861 43045 ft 480 kts 216°
2026-05-06 04:33 -9.29852 -35.56716 43045 ft 480 kts 216°
2026-05-06 04:33 -9.35314 -35.60563 43045 ft 480 kts 216°
2026-05-06 04:34 -9.40840 -35.64386 43046 ft 480 kts 215°
2026-05-06 04:34 -9.46336 -35.68156 43047 ft 480 kts 216°
2026-05-06 04:35 -9.51858 -35.71941 43047 ft 480 kts 216°
2026-05-06 04:35 -9.57346 -35.75704 43047 ft 480 kts 216°
2026-05-06 04:36 -9.62853 -35.79480 43048 ft 480 kts 216°
2026-05-06 04:36 -9.68390 -35.83277 43048 ft 480 kts 216°
2026-05-06 04:37 -9.73889 -35.87051 43048 ft 480 kts 216°
2026-05-06 04:37 -9.79409 -35.90841 43048 ft 480 kts 216°
2026-05-06 04:38 -9.84894 -35.94608 43048 ft 480 kts 216°
2026-05-06 04:38 -9.90423 -35.98407 43048 ft 480 kts 216°
2026-05-06 04:39 -9.95904 -36.02174 43049 ft 480 kts 216°
2026-05-06 04:39 -10.01430 -36.05974 43049 ft 480 kts 216°
2026-05-06 04:40 -10.06924 -36.09753 43049 ft 480 kts 216°
2026-05-06 04:40 -10.12439 -36.13549 43045 ft 480 kts 216°
2026-05-06 04:41 -10.17910 -36.17315 43045 ft 480 kts 216°
2026-05-06 04:41 -10.23423 -36.21113 43045 ft 480 kts 216°
2026-05-06 04:42 -10.28946 -36.24918 43046 ft 480 kts 216°
2026-05-06 04:42 -10.34440 -36.28705 43046 ft 480 kts 216°
2026-05-06 04:43 -10.39933 -36.32494 43046 ft 480 kts 216°
2026-05-06 04:43 -10.45431 -36.36288 43046 ft 480 kts 216°
2026-05-06 04:44 -10.50922 -36.40078 43046 ft 480 kts 216°
2026-05-06 04:44 -10.56456 -36.43899 43047 ft 480 kts 216°
2026-05-06 04:45 -10.61934 -36.47684 43047 ft 480 kts 216°
2026-05-06 04:45 -10.67428 -36.51482 43047 ft 480 kts 216°
2026-05-06 04:46 -10.72938 -36.55291 43047 ft 480 kts 216°
2026-05-06 04:46 -10.78414 -36.59080 43047 ft 480 kts 216°
2026-05-06 04:47 -10.83927 -36.62896 43047 ft 480 kts 216°
2026-05-06 04:47 -10.89419 -36.66699 43048 ft 480 kts 216°
2026-05-06 04:48 -10.94937 -36.70524 43049 ft 482 kts 215°
2026-05-06 04:48 -11.00472 -36.74361 43049 ft 484 kts 214°
2026-05-06 04:49 -11.05998 -36.78192 43047 ft 484 kts 214°
2026-05-06 04:49 -11.11565 -36.82052 43046 ft 483 kts 214°
2026-05-06 04:50 -11.17076 -36.85876 43047 ft 483 kts 214°
2026-05-06 04:50 -11.22616 -36.89722 43048 ft 484 kts 214°
2026-05-06 04:51 -11.28149 -36.93565 43045 ft 483 kts 214°
2026-05-06 04:51 -11.33692 -36.97419 43047 ft 483 kts 214°
2026-05-06 04:52 -11.39215 -37.01260 43046 ft 484 kts 214°
2026-05-06 04:52 -11.44780 -37.05132 43047 ft 485 kts 214°
2026-05-06 04:53 -11.50312 -37.08983 43047 ft 485 kts 213°
2026-05-06 04:53 -11.55889 -37.12867 43048 ft 485 kts 213°
2026-05-06 04:54 -11.61408 -37.16711 43048 ft 484 kts 213°
2026-05-06 04:54 -11.66939 -37.20566 43048 ft 483 kts 213°
2026-05-06 04:55 -11.72479 -37.24429 43048 ft 483 kts 212°
2026-05-06 04:55 -11.78018 -37.28292 43048 ft 484 kts 213°
2026-05-06 04:56 -11.83537 -37.32145 43049 ft 483 kts 213°
2026-05-06 04:56 -11.89048 -37.35994 43049 ft 483 kts 212°
2026-05-06 04:57 -11.94587 -37.39864 43049 ft 483 kts 213°
2026-05-06 04:57 -12.00119 -37.43733 43050 ft 483 kts 213°
2026-05-06 04:58 -12.05655 -37.47604 43059 ft 483 kts 213°
2026-05-06 04:58 -12.11181 -37.51472 43068 ft 484 kts 212°
2026-05-06 04:59 -12.16721 -37.55350 43075 ft 483 kts 213°
2026-05-06 04:59 -12.22256 -37.59227 43077 ft 483 kts 212°
2026-05-06 05:00 -12.27757 -37.63084 43076 ft 483 kts 212°
2026-05-06 05:00 -12.33291 -37.66964 43072 ft 484 kts 213°
2026-05-06 05:01 -12.85519 -38.03690 43084 ft 484 kts 213°
2026-05-06 05:01 -12.91022 -38.07551 43071 ft 483 kts 211°
2026-05-06 05:02 -12.97166 -38.10468 43083 ft 495 kts 200°
2026-05-06 05:02 -13.03605 -38.13161 42813 ft 503 kts 199°
2026-05-06 05:02 -13.06819 -38.14521 42197 ft 502 kts 199°
2026-05-06 05:03 -13.10004 -38.15874 41592 ft 493 kts 199°
2026-05-06 05:03 -13.27481 -38.23316 38323 ft 482 kts 198°
2026-05-06 05:03 -13.72773 -38.42674 29868 ft 465 kts 199°
2026-05-06 05:03 -13.79392 -38.45486 28549 ft 454 kts 196°
2026-05-06 05:04 -13.82681 -38.45954 27916 ft 460 kts 175°
2026-05-06 05:04 -14.30235 -38.35450 18245 ft 433 kts 157°
2026-05-06 05:04 -14.46768 -38.26802 14284 ft 388 kts 136°
2026-05-06 05:04 -14.48566 -38.24853 13655 ft 372 kts 142°
2026-05-06 05:05 -14.66341 -38.18475 9012 ft 348 kts 167°
2026-05-06 05:05 -14.68600 -38.18543 8513 ft 314 kts 195°
2026-05-06 05:05 -14.70357 -38.19663 8189 ft 292 kts 226°
2026-05-06 05:05 -14.71249 -38.21516 7878 ft 289 kts 258°
2026-05-06 05:06 -14.71162 -38.23558 7599 ft 289 kts 277°
2026-05-06 05:06 -14.71195 -38.25618 7297 ft 287 kts 260°
2026-05-06 05:06 -14.71509 -38.27647 7002 ft 286 kts 259°
2026-05-06 05:06 -14.71836 -38.29686 6700 ft 285 kts 259°
2026-05-06 05:07 -14.72160 -38.31676 6455 ft 284 kts 259°
2026-05-06 05:07 -14.72489 -38.33683 6257 ft 283 kts 259°
2026-05-06 05:07 -14.72822 -38.35699 6056 ft 282 kts 259°
2026-05-06 05:07 -14.73152 -38.37694 5856 ft 281 kts 258°
2026-05-06 05:08 -14.73481 -38.39668 5658 ft 281 kts 258°
2026-05-06 05:08 -14.73812 -38.41658 5458 ft 279 kts 258°
2026-05-06 05:08 -14.74137 -38.43603 5260 ft 277 kts 258°
2026-05-06 05:08 -14.74463 -38.45558 5060 ft 275 kts 258°
2026-05-06 05:09 -14.74789 -38.47506 4859 ft 273 kts 258°
2026-05-06 05:09 -14.75111 -38.49432 4716 ft 271 kts 258°
2026-05-06 05:09 -14.75431 -38.51340 4617 ft 270 kts 258°
2026-05-06 05:09 -14.75751 -38.53258 4516 ft 269 kts 258°
2026-05-06 05:10 -14.76068 -38.55148 4416 ft 268 kts 258°
2026-05-06 05:10 -14.76383 -38.57033 4315 ft 267 kts 259°
2026-05-06 05:10 -14.76701 -38.58939 4213 ft 266 kts 259°
2026-05-06 05:10 -14.77010 -38.60793 4114 ft 265 kts 259°
2026-05-06 05:11 -14.77327 -38.62687 4011 ft 264 kts 259°
2026-05-06 05:11 -14.77638 -38.64555 3910 ft 264 kts 259°
2026-05-06 05:11 -14.77948 -38.66416 3810 ft 263 kts 259°
2026-05-06 05:11 -14.78259 -38.68281 3710 ft 263 kts 259°
2026-05-06 05:12 -14.78570 -38.70145 3610 ft 263 kts 259°
2026-05-06 05:12 -14.78880 -38.72007 3509 ft 262 kts 259°
2026-05-06 05:12 -14.79186 -38.73848 3410 ft 262 kts 259°
2026-05-06 05:12 -14.79494 -38.75698 3309 ft 261 kts 259°
2026-05-06 05:13 -14.79802 -38.77556 3209 ft 261 kts 259°
2026-05-06 05:13 -14.80111 -38.79411 3108 ft 261 kts 259°
2026-05-06 05:13 -14.80414 -38.81237 3009 ft 260 kts 259°
2026-05-06 05:13 -14.80723 -38.83099 2907 ft 260 kts 259°
2026-05-06 05:14 -14.81026 -38.84942 2833 ft 259 kts 261°
2026-05-06 05:14 -14.81119 -38.86744 2823 ft 237 kts 267°
2026-05-06 05:14 -14.81174 -38.88326 2739 ft 205 kts 267°
2026-05-06 05:14 -14.81216 -38.89687 2531 ft 179 kts 267°
2026-05-06 05:15 -14.81254 -38.90949 2270 ft 174 kts 267°
2026-05-06 05:15 -14.81290 -38.92211 2027 ft 173 kts 267°
2026-05-06 05:15 -14.81326 -38.93441 1792 ft 173 kts 267°
2026-05-06 05:15 -14.81361 -38.94683 1555 ft 165 kts 267°
2026-05-06 05:16 -14.81391 -38.95774 1331 ft 140 kts 267°
2026-05-06 05:16 -14.81416 -38.96718 1133 ft 125 kts 267°
2026-05-06 05:16 -14.81440 -38.97604 977 ft 122 kts 267°
2026-05-06 05:16 -14.81464 -38.98471 820 ft 118 kts 267°
2026-05-06 05:17 -14.81486 -38.99309 670 ft 115 kts 267°
2026-05-06 05:17 -14.81508 -39.00131 526 ft 114 kts 267°
2026-05-06 05:17 -14.81530 -39.00966 376 ft 115 kts 267°
2026-05-06 05:17 -14.81551 -39.01790 226 ft 113 kts 268°
2026-05-06 05:18 -14.81565 -39.02581 67 ft 106 kts 268°
2026-05-06 05:18 -14.81593 -39.03273 23 ft 80 kts 269°
2026-05-06 05:18 -14.81599 -39.03571 21 ft 12 kts 293°
2026-05-06 05:18 -14.81576 -39.03515 22 ft 21 kts 92°
2026-05-06 05:19 -14.81585 -39.03374 23 ft 14 kts 97°
2026-05-06 05:19 -14.81557 -39.03354 23 ft 4 kts 346°
2026-05-06 05:19 -14.81541 -39.03357 23 ft 0 kts 347°
2026-05-06 05:19 -14.81505 -39.03364 23 ft 6 kts
2026-05-06 05:20 -14.81494 -39.03355 23 ft 0 kts 56°